McCook, NE

5:35 PM CST on February 20, 2017 (GMT -0600)
McCook Municipal

Weather History for KMCK - July, 2012

Change the Weather History Date:

Saturday, July 14, 2012

  Actual Average Record
Temperature  
Mean Temperature 82 °F 76 °F  
Max Temperature 99 °F 90 °F 109 °F (1934)
Min Temperature 65 °F 62 °F 48 °F (1990)
Cooling Degree Days 18    
Growing Degree Days 32 (Base 50)    
Moisture  
Dew Point 59 °F    
Average Humidity 50    
Maximum Humidity 84    
Minimum Humidity 21    
Precipitation  
Precipitation 0.00 in 0.11 in 1.12 in (1952)
Month to date precipitation 1.55 1.50  
Year to date precipitation 6.10 12.82  
Sea Level Pressure  
Sea Level Pressure 29.95 in    
Wind  
Wind Speed 6 mph (East)    
Max Wind Speed 13 mph    
Max Gust Speed -    
Visibility 10 miles    
Events      
T = Trace of Precipitation, MM = Missing Value Source: NWS Daily Summary

Daily Weather History Graph

Daily Weather History Graph

Search for Another Location

Airport or City:

Trip Planner

Search our weather history database for the weather conditions in past years. The results will help you decide how hot, cold, wet, or windy it might be!

Date:

Astronomy

Jul. 14, 2012 Rise Set
Actual Time 6:25 AM CDT 9:11 PM CDT
Civil Twilight 5:53 AM CDT 9:42 PM CDT
Nautical Twilight 5:12 AM CDT 10:23 PM CDT
Astronomical Twilight 4:26 AM CDT 11:08 PM CDT
Moon 2:40 AM CDT (7/14) 5:37 PM CDT (7/14)
Length of Visible Light 15h 49m
Length of Day
14h 45m
Waning Crescent, 18% of the Moon is Illuminated
Jul 14
Waning Crescent
Jul 18
New
Jul 26
First Quarter
Aug 1
Full
Aug 9
Last Quarter

Hourly Weather History & Observations

Time (CDT) Temp. Heat Index Dew Point Humidity Pressure Visibility Wind Dir Wind Speed Gust Speed Precip Events Conditions
12:53 AM 73.0 °F - 63.0 °F 71% 29.96 in 10.0 mi East 6.9 mph - N/A   Clear
1:53 AM 69.1 °F - 62.1 °F 78% 29.96 in 10.0 mi NE 3.5 mph - N/A   Clear
2:53 AM 69.1 °F - 62.1 °F 78% 29.96 in 10.0 mi East 6.9 mph - N/A   Clear
3:53 AM 68.0 °F - 62.6 °F 83% 30.04 in 10.0 mi East 3.5 mph - N/A   Clear
4:53 AM 68.0 °F - 60.8 °F 78% 30.03 in 10.0 mi Calm Calm - N/A   Clear
5:53 AM 66.9 °F - 60.1 °F 79% 29.96 in 10.0 mi Calm Calm - N/A   Clear
6:53 AM 66.0 °F - 61.0 °F 84% 29.97 in 8.0 mi ENE 4.6 mph - N/A   Clear
7:53 AM 71.1 °F - 61.0 °F 70% 29.98 in 10.0 mi Calm Calm - N/A   Clear
8:53 AM 73.9 °F - 61.0 °F 64% 29.99 in 10.0 mi Calm Calm - N/A   Clear
9:53 AM 81.0 °F 82.2 °F 63.0 °F 54% 30.00 in 10.0 mi East 3.5 mph - N/A   Clear
10:53 AM 86.0 °F 86.8 °F 63.0 °F 46% 29.99 in 10.0 mi ESE 5.8 mph - N/A   Clear
11:53 AM 91.0 °F 90.5 °F 60.1 °F 35% 29.99 in 10.0 mi East 9.2 mph - N/A   Clear
12:53 PM 95.0 °F 94.8 °F 60.1 °F 31% 29.97 in 10.0 mi East 9.2 mph - N/A   Clear
1:53 PM 97.0 °F 96.5 °F 59.0 °F 28% 29.96 in 10.0 mi East 11.5 mph - N/A   Clear
2:53 PM 98.1 °F 96.4 °F 55.9 °F 24% 29.93 in 10.0 mi East 10.4 mph - N/A   Scattered Clouds
3:53 PM 97.0 °F 95.3 °F 55.9 °F 25% 29.92 in 10.0 mi SE 10.4 mph - N/A   Scattered Clouds
4:53 PM 98.1 °F 95.7 °F 53.1 °F 22% 29.91 in 10.0 mi SE 9.2 mph - N/A   Partly Cloudy
5:53 PM 99.0 °F 96.5 °F 53.1 °F 21% 29.89 in 10.0 mi East 8.1 mph - N/A   Clear
6:53 PM 96.1 °F 94.1 °F 55.0 °F 25% 29.88 in 10.0 mi SE 9.2 mph - N/A   Clear
7:53 PM 93.0 °F 91.7 °F 57.0 °F 30% 29.88 in 10.0 mi ESE 10.4 mph - N/A   Clear
8:53 PM 87.1 °F 85.9 °F 57.0 °F 36% 29.88 in 10.0 mi ESE 9.2 mph - N/A   Clear
9:53 PM 81.0 °F 81.6 °F 60.1 °F 49% 29.91 in 10.0 mi East 8.1 mph - N/A   Clear
10:53 PM 80.1 °F 81.2 °F 62.1 °F 54% 29.92 in 10.0 mi East 9.2 mph - N/A   Partly Cloudy
11:53 PM 81.0 °F 81.3 °F 59.0 °F 47% 29.92 in 10.0 mi ESE 12.7 mph - N/A   Clear